Location: Moutoa
(40.5000°S, 175.3833°E)
Time: 22:00:37
(UTC+00:00)

Daily predictions for brighter satellites

Satellite Brightness Start Highest point End
(mag) Time Altitude Azimuth Time Altitude Azimuth Time Altitude Azimuth
ATLAS 5 CENTAUR R/B 3.1 12:03:35 10° SW 12:07:13 29° W 12:07:13 29° W
Cosmos 2123 Rocket 4.2 12:05:06 10° S 12:11:21 62° E 12:12:33 52° NE
IDEFIX/ARIANE 42P 4.1 12:09:51 24° E 12:11:28 28° ESE 12:15:56 10° S
Meteor 2-5 Rocket 3.9 12:12:13 10° SSW 12:18:08 61° W 12:18:40 58° WNW
Cosmos 1869 Rocket 3.8 12:24:27 66° SSE 12:24:27 66° SSE 12:28:21 10° S
Meteor 2-21 4.5 12:19:05 10° SSW 12:25:10 64° W 12:25:55 59° NW
ALOS 2 3.2 12:21:41 10° SSE 12:25:28 50° ESE 12:25:28 50° ESE
Spot 4 3.9 12:22:33 10° SSE 12:27:14 69° E 12:27:14 69° E
Cosmos 44 Rocket 4.3 12:29:44 36° W 12:30:44 40° SW 12:35:21 10° SSE
Cosmos 1943 Rocket 2.6 12:31:17 48° ENE 12:31:22 48° ENE 12:36:49 10° SE
Cosmos 1733 Rocket 4.1 12:33:53 37° ESE 12:33:53 37° ESE 12:37:37 10° SSE
Cosmos 1833 Rocket 2.6 12:27:58 10° SSW 12:33:41 84° ESE 12:34:16 72° NE
Meteor 2-16 Rocket 4.3 12:31:40 10° S 12:37:52 85° W 12:38:48 66° N
CZ-2C R/B 4.2 12:41:10 35° W 12:41:25 35° W 12:46:45 10° SSW
USA 215 4.1 12:39:16 10° ESE 12:45:01 31° NE 12:45:09 31° NE
MSX 4.1 12:45:27 47° NE 12:46:57 62° ESE 12:52:43 10° S
Cosmos 2082 Rocket 4.1 12:44:39 10° S 12:49:27 26° SE 12:54:11 10° ENE
Cosmos 2278 Rocket 2.2 12:49:21 62° NE 12:49:47 64° ENE 12:55:28 10° SSE
Cosmos 1269 Rocket 3.9 12:50:44 76° WNW 12:51:04 80° WSW 12:56:26 10° SSE
Meteor 1-21 Rocket 4.5 12:48:52 10° S 12:54:43 65° ESE 12:55:58 52° NE
MetOp-A 3.9 12:50:53 10° S 12:53:53 53° S 12:53:53 53° S
Aureole 3 4.1 12:48:40 10° S 12:54:50 73° E 12:55:37 63° NE
NPP 4.0 12:54:34 46° ENE 12:55:53 58° ESE 13:01:15 10° S
ARIANE 5 R/B 3.6 13:01:38 10° S 13:05:45 36° WSW 13:05:48 36° WSW
Cosmos 2242 Rocket 3.6 13:03:10 10° S 13:07:27 80° SSE 13:07:27 80° SSE
SeaSat 1 3.7 13:08:52 19° ENE 13:11:48 38° SE 13:16:21 10° S
Cosmos 1025 Rocket 4.5 13:08:05 10° SSE 13:12:01 30° ESE 13:13:05 27° ENE
Cosmos 1932 4.4 13:15:34 56° N 13:16:49 73° ENE 13:23:03 10° SE
Cosmos 1378 Rocket 3.5 13:15:27 10° S 13:19:48 73° E 13:19:48 73° E
CZ-2D R/B 3.3 13:19:14 21° NE 13:22:20 39° ESE 13:27:27 10° S
Cosmos 2251 Rocket 4.0 13:23:07 43° NE 13:23:58 47° ENE 13:29:01 10° SSE
Cosmos 1605 Rocket 4.2 13:23:00 47° NW 13:24:35 60° W 13:30:58 10° S
Cosmos 1763 Rocket 3.8 13:23:30 10° SSW 13:28:47 66° ESE 13:30:37 40° NE
Cosmos 1140 Rocket 4.3 13:27:49 37° W 13:28:49 40° WSW 13:33:47 10° S
ISS -2.3 13:27:11 10° SW 13:29:34 36° SSW 13:29:34 36° SSW
Cosmos 1340 Rocket 3.9 13:34:56 33° WSW 13:34:56 33° WSW 13:38:00 10° S
RESURS DK-1 4.5 13:32:04 10° SW 13:33:13 16° WSW 13:33:13 16° WSW
USA 305 4.4 13:38:52 20° S 13:38:52 20° S 13:40:52 10° SSE
ADEOS II 3.3 13:35:17 17° NE 13:38:52 38° ESE 13:43:44 10° S
Timation 2 Rocket 4.4 13:38:15 38° WNW 13:40:10 51° WSW 13:46:12 10° SSE
ACS3 Solar Sail 3.2 13:37:14 10° NE 13:42:42 34° ESE 13:48:07 10° S
Cosmos 2173 Rocket 4.2 13:43:06 39° NNE 13:45:37 71° E 13:52:03 10° SSE
Timation 1 Rocket 4.3 13:42:01 10° SSW 13:48:00 66° WNW 13:49:39 47° N
IDEFIX/ARIANE 42P 3.3 13:50:32 36° WNW 13:50:44 36° W 13:55:38 10° SSW
Cosmos 540 Rocket 3.4 13:47:04 10° SSW 13:52:18 90° ESE 13:53:58 44° NNE
Cosmos 2100 Rocket 4.0 13:49:52 40° N 13:52:22 83° E 13:58:49 10° S
Resurs 1-4 Rocket 2.1 13:50:57 38° NNE 13:53:05 79° ESE 13:58:25 10° S
ALOS 2.9 13:52:47 29° NE 13:54:54 53° ESE 13:59:25 10° S
Cosmos 371 Rocket 3.5 13:55:13 46° NNE 13:56:18 59° ENE 14:01:03 10° SSE
Cosmos 1656 Rocket 3.9 13:55:35 41° NNE 13:57:16 59° ENE 14:02:38 10° SSE
CZ-2C R/B 2.7 13:54:28 10° SSE 14:00:02 87° WSW 14:01:55 44° NNW
SJ 16-02 1.2 14:03:40 64° NNW 14:04:19 89° ENE 14:08:42 10° SSE
COSMOS 2441 4.5 14:03:46 50° NW 14:04:26 55° W 14:09:13 10° SSW
Cosmos 1725 Rocket 4.3 14:01:44 29° NNE 14:04:56 63° E 14:11:06 10° SSE
Lacrosse 5 rocket 2.3 14:06:12 27° ENE 14:06:12 27° ENE 14:08:40 10° ESE
Cosmos 407 Rocket 4.4 14:04:50 31° W 14:06:26 38° WSW 14:11:27 10° S
Lacrosse 4 Rocket 3.9 14:08:05 10° NE 14:09:31 12° ENE 14:10:58 10° E
Cosmos 1943 Rocket 3.7 14:12:45 19° W 14:15:20 26° SW 14:20:02 10° S
ATLAS 2AS CENTAUR R/B 3.9 14:08:56 10° SSW 14:16:03 46° SE 14:23:06 10° ENE
H-2A R/B 2.9 14:12:02 11° NE 14:17:04 51° ESE 14:22:22 10° S
Cosmos 1459 Rocket 3.9 14:15:15 37° NNW 14:17:45 70° W 14:23:55 10° S
Cosmos 2221 Rocket 3.8 14:15:17 10° SSW 14:19:48 55° W 14:20:45 45° NW
DELTA 2 R/B (1) 3.9 14:19:55 39° NW 14:20:19 40° NNW 14:25:29 10° NE
Cosmos 1954 Rocket 4.0 14:19:14 41° NNW 14:21:06 75° WSW 14:26:27 10° SSE
Cosmos 1190 Rocket 4.2 14:19:27 39° NW 14:21:13 60° WSW 14:26:27 10° SSE
Cosmos 2369 Rocket 2.8 14:20:55 26° NNE 14:23:51 49° ENE 14:29:18 10° SE
Cosmos 1782 Rocket 3.5 14:22:52 44° N 14:24:14 87° WSW 14:28:44 10° S
USA 215 3.4 14:21:44 10° SE 14:28:18 72° SW 14:32:29 24° WNW
Cosmos 676 Rocket 3.9 14:26:29 37° NNW 14:28:39 86° WSW 14:33:59 10° SSE
Cosmos 304 Rocket 3.9 14:27:46 39° NW 14:29:20 61° WSW 14:34:06 10° SSE
Cosmos 2016 Rocket 3.9 14:26:32 29° N 14:29:54 89° W 14:36:08 10° S
Meteor 2-17 Rocket 4.5 14:23:52 10° SSW 14:29:56 63° W 14:33:06 29° NNW
COSMOS 2406 3.2 14:26:38 10° SSW 14:32:28 87° ESE 14:38:11 10° NNE
Cosmos 2082 Rocket 2.5 14:28:14 10° SW 14:33:44 47° WNW 14:36:08 30° NNW
Cosmos 2278 Rocket 4.0 14:31:10 14° W 14:34:20 21° SW 14:38:34 10° S
Cosmos 841 Rocket 3.9 14:29:27 10° SSW 14:34:38 64° ESE 14:39:47 10° NNE
METEOR-M 4.3 14:32:08 14° NNE 14:36:50 77° ESE 14:42:15 10° S
H-2A R/B 1.8 14:36:09 36° N 14:37:43 73° WNW 14:41:45 10° SSW
Cosmos 1975 Rocket 3.2 14:35:25 10° S 14:39:48 70° E 14:42:49 19° NNE
Cosmos 2084 3.7 14:40:53 34° N 14:42:21 54° ENE 14:46:24 10° SE
Magion 5 Rocket2 4.5 14:38:26 23° NW 14:45:08 76° SW 14:50:04 10° SSE
Envisat 3.4 14:43:35 30° NNW 14:45:33 44° W 14:50:28 10° SSW
CZ-2C R/B 4.2 14:43:34 10° NE 14:47:33 29° ESE 14:51:32 10° S
SeaSat 1 3.3 14:48:28 27° WNW 14:49:11 28° WNW 14:53:26 10° SW
Cosmos 1025 Rocket 4.5 14:45:52 10° SW 14:49:15 22° W 14:49:47 21° W
Cosmos 968 Rocket 3.5 14:47:52 24° N 14:50:56 75° ENE 14:56:06 10° SSE
ADEOS Rocket 3.1 14:45:12 15° N 14:50:57 68° WNW 14:57:08 10° SSW
USA 276 2.1 14:52:45 10° SW 14:55:39 74° SSE 14:58:42 10° ENE
Cosmos 2058 4.1 14:54:55 10° S 14:58:41 39° ESE 15:02:24 10° NNE
AQUA 3.7 14:55:22 14° N 14:59:21 79° WNW 15:04:08 10° SSW
USA 267 3.9 14:53:52 10° ENE 15:00:17 60° SE 15:06:46 10° SW
Cosmos 1812 1.9 15:00:39 43° NNW 15:01:25 68° W 15:04:20 10° S
CZ-2D R/B 3.2 15:00:28 23° NW 15:02:21 27° W 15:07:02 10° SW
Cosmos 2263 4.2 15:03:03 20° NNW 15:07:05 82° ENE 15:12:46 10° SSE
Cosmos 2297 3.8 15:06:30 21° NNW 15:10:23 73° WSW 15:16:11 10° SSE
Cosmos 220 Rocket 3.9 15:08:58 10° SSW 15:12:58 53° WNW 15:16:26 13° N
ADEOS II 3.1 15:16:05 19° NW 15:18:28 26° W 15:22:53 10° SW
Cosmos 2233 Rocket 4.3 15:14:02 18° NNW 15:18:28 51° WSW 15:24:33 10° S
BREEZE-M DEB (TANK) 2.4 15:16:54 10° WSW 15:20:55 43° NW 15:23:00 10° NNE
Okean 2 Rocket 3.9 15:18:14 10° N 15:22:37 53° E 15:27:04 10° SSE
ACS3 Solar Sail 2.4 15:20:43 15° NNW 15:25:24 37° W 15:31:03 10° SSW
Cosmos 1741 Rocket 4.0 15:23:58 16° NNW 15:28:11 72° WSW 15:33:27 10° SSE
Cosmos 1346 Rocket 3.9 15:24:46 10° S 15:28:20 42° ESE 15:31:53 10° NNE
ALOS 4.0 15:30:52 13° WNW 15:32:10 15° W 15:34:46 10° WSW
Resurs 1-4 Rocket 4.0 15:32:00 11° WNW 15:33:25 12° W 15:35:30 10° WSW
CENTAUR R/B 3.1 15:26:16 14° NW 15:33:57 82° SW 15:41:06 10° SSE
Cosmos 1939 Rocket 4.5 15:33:04 10° NE 15:36:25 34° ESE 15:39:51 10° S
Cosmos 1891 Rocket 4.5 15:34:06 10° NNW 15:40:12 75° W 15:46:31 10° S
H-2A R/B 2.6 15:38:33 10° S 15:42:29 55° WSW 15:46:16 11° NNW
Lacrosse 5 rocket 2.5 15:39:48 10° W 15:42:39 25° SW 15:45:34 10° SSE
Cosmos 1536 Rocket 3.7 15:38:26 10° S 15:42:58 86° E 15:47:26 10° N
MOS 1-B Rocket 4.2 15:39:27 10° N 15:45:04 44° W 15:50:29 10° SSW
ARIANE 6 FM1 Upper Stage 3.3 15:41:43 10° SSW 15:46:14 67° SE 15:50:37 10° NE
Lacrosse 4 Rocket 1.6 15:43:22 13° NW 15:46:48 55° WSW 15:50:52 10° SSE
Cosmos 292 Rocket 3.7 15:42:27 10° NNW 15:47:09 85° WSW 15:51:58 10° SSE
MOZ.5/SAFIR/RUBIN 5/SL-8 3.9 15:45:22 10° S 15:50:03 64° WSW 15:54:43 10° NNW
Cosmos 1814 Rocket 4.2 15:47:45 10° SSW 15:52:56 77° ESE 15:58:05 10° NNE
ASTEX 1 4.0 15:49:09 10° S 15:53:46 40° WSW 15:58:18 10° NW
H-2A R/B 3.5 15:52:38 10° NW 15:56:36 21° W 16:00:40 10° SW
Meteor 2-1 Rocket 4.4 15:51:28 10° N 15:56:58 78° E 16:02:38 10° SSE
ARGOS 3.6 15:53:50 10° N 15:58:55 43° W 16:04:04 10° SSW
USA 306 2.8 15:55:26 10° NNW 15:59:12 52° NE 16:02:18 10° ESE
Cosmos 1455 Rocket 4.0 15:55:01 10° N 15:59:17 51° E 16:03:36 10° SSE
Cosmos 1400 Rocket 4.3 16:02:53 10° WNW 16:05:48 21° WSW 16:08:46 10° SSW
ATLAS 2AS CENTAUR R/B 3.2 16:00:05 10° SW 16:06:57 42° WNW 16:13:43 10° N
IRS-1D 4.4 16:01:49 10° NNE 16:07:02 59° ESE 16:12:20 10° S
Cosmos 2369 Rocket 3.6 16:03:25 10° WNW 16:08:05 25° SW 16:12:46 10° S
Cosmos 1464 Rocket 4.1 16:02:57 10° NNW 16:09:16 71° W 16:15:44 10° S
